GALAXY 37 (G-37)

Last updated on Wed Sep 09 2026 00:03:03 GMT+0000 (Coordinated Universal Time)

1 57493U 23112A 26250.92090574 .00000028 00000+0 00000+0 0 9996 2 57493 0.0190 102.2772 0001999 80.3346 8.9029 1.00271656 11371
UTC large
Height (km)
Speed (km/s)
/
Latitude / Longitude
Inclination (degrees)
Orbital Period (minutes)
Azimuth
Elevation
Range (km)
Doppler Factor

Next 0 passes for location: London (51.5072 / 0.1276)

No passes found over London.
GALAXY 37 (G-37)